sat.trackr.live / text

‹ back to catalog

TIANTONG-1 2

NORAD 46916 · 2020-082A

PAYLOAD ACTIVE UNKNOWN

§ Identity

Operator
Country
PRC
Launch date
2020-11-12
Launch site
XICLF
Launch vehicle
Mass (kg)
RCS (m²)

Purposes: comms

External: N2YO · Heavens-Above · Gunter

§ Orbital elements

Epoch: 2026-09-19T19:37:38.827200Z

Period
1,436.13 min
Inclination
0.7055°
Eccentricity
0.0000761
Mean motion
1.00269668 rev/d
Perigee alt
35,784.0 km
Apogee alt
35,790.4 km
Semi-major
42,165.3 km
B*
0.0000e+0
RAAN
343.0612°
Arg perigee
236.5373°
Mean anomaly
198.4652°
Rev number
2,160

§ Raw data

TIANTONG-1 21 46916U 20082A   26262.81781050 -.00000360  00000+0  00000+0 0  99942 46916   0.7055 343.0612 0000761 236.5373 198.4652  1.00269668 21609

JSON: /api/v1/satellites/46916 · /tle

For live sub-satellite position, see the globe view (requires WebGL).

§ Visibility from observer

Set your observer location to see the next 7 days of passes ≥ 10°. The values pass through the URL so the page stays shareable.

No JS? Fill the form by hand. The geolocation button needs JavaScript.